Weather History for KCNM - November, 2011

Change the Weather History Date:

Tuesday, November 1, 2011

  Actual Average (KHOB) Record (KHOB)
Temperature  
Mean Temperature 62 °F -  
Max Temperature 86 °F 66 °F - (-1)
Min Temperature 41 °F 42 °F - (-1)
Degree Days  
Heating Degree Days 2    
Growing Degree Days 12 (Base 50)    
Moisture  
Dew Point 34 °F    
Average Humidity 43    
Maximum Humidity 76    
Minimum Humidity 12    
Precipitation  
Precipitation 0.00 in - - ()
Sea Level Pressure  
Sea Level Pressure 29.85 in    
Wind  
Wind Speed 6 mph (South)    
Max Wind Speed 20 mph    
Max Gust Speed 32 mph    
Visibility 10 miles    
Events      
Averages and records for this station are not official NWS values.
T = Trace of Precipitation, MM = Missing Value Source: NWS Daily Summary

Daily Weather History Graph

Daily Weather History Graph

Search for Another Location

Airport or City:

Trip Planner

Search our weather history database for the weather conditions in past years. The results will help you decide how hot, cold, wet, or windy it might be!

Date:

Astronomy

Nov. 01, 2011 Rise Set
Actual Time 7:13 AM MDT 6:06 PM MDT
Civil Twilight 6:48 AM MDT 6:32 PM MDT
Nautical Twilight 6:19 AM MDT 7:01 PM MDT
Astronomical Twilight 5:50 AM MDT 7:29 PM MDT
Moon 12:58 PM MDT (11/1) 11:53 PM MDT (11/1)
Length of Visible Light 11h 43m
Length of Day
10h 52m
Waxing Crescent, 40% of the Moon is Illuminated
Nov 1
Waxing Crescent
Nov 2
First Quarter
Nov 10
Full
Nov 18
Last Quarter
Nov 24
New

Hourly Weather History & Observations

Time (MDT) Temp. Windchill Dew Point Humidity Pressure Visibility Wind Dir Wind Speed Gust Speed Precip Events Conditions
12:53 AM 54.0 °F - 35.1 °F 49% 29.92 in 10.0 mi SSE 5.8 mph - N/A   Clear
1:53 AM 50.0 °F - 35.1 °F 57% 29.92 in 10.0 mi ESE 3.5 mph - N/A   Clear
2:53 AM 44.1 °F - 34.0 °F 68% 29.91 in 10.0 mi Calm Calm - N/A   Clear
3:53 AM 42.1 °F - 34.0 °F 73% 29.91 in 10.0 mi Calm Calm - N/A   Clear
4:53 AM 43.0 °F 41.3 °F 35.1 °F 74% 29.91 in 10.0 mi North 3.5 mph - N/A   Clear
5:53 AM 42.1 °F 37.7 °F 35.1 °F 76% 29.92 in 10.0 mi NNW 6.9 mph - N/A   Clear
6:53 AM 41.0 °F 39.0 °F 34.0 °F 76% 29.94 in 10.0 mi WNW 3.5 mph - N/A   Clear
7:53 AM 43.0 °F 41.3 °F 36.0 °F 76% 29.95 in 10.0 mi WNW 3.5 mph - N/A   Clear
8:53 AM 52.0 °F - 39.9 °F 63% 29.95 in 10.0 mi SE 11.5 mph 32.2 mph N/A   Clear
9:53 AM 57.0 °F - 44.1 °F 62% 29.94 in 10.0 mi SSE 3.5 mph - N/A   Clear
10:53 AM 62.1 °F - 42.1 °F 48% 29.92 in 10.0 mi Variable 3.5 mph - N/A   Clear
11:53 AM 68.0 °F - 41.0 °F 37% 29.88 in 10.0 mi Variable 3.5 mph - N/A   Clear
12:53 PM 77.0 °F - 37.9 °F 24% 29.83 in 10.0 mi ESE 5.8 mph - N/A   Clear
1:53 PM 79.0 °F - 36.0 °F 21% 29.79 in 10.0 mi Variable 4.6 mph - N/A   Clear
2:53 PM 82.0 °F - 37.0 °F 20% 29.78 in 10.0 mi SSE 8.1 mph - N/A   Clear
3:53 PM 84.9 °F - 33.1 °F 16% 29.75 in 10.0 mi SE 8.1 mph - N/A   Clear
4:53 PM 84.9 °F - 26.1 °F 12% 29.73 in 10.0 mi SSW 19.6 mph - N/A   Clear
5:00 PM 84.2 °F - 26.6 °F 12% 29.85 in 10.0 mi SSW 19.6 mph - N/A   Clear
5:53 PM 80.1 °F - 28.0 °F 15% 29.74 in 10.0 mi SSW 10.4 mph - N/A   Clear
6:53 PM 71.1 °F - 30.0 °F 22% 29.77 in 10.0 mi South 9.2 mph - N/A   Clear
7:53 PM 68.0 °F - 30.0 °F 24% 29.77 in 10.0 mi South 8.1 mph - N/A   Clear
8:53 PM 59.0 °F - 33.1 °F 38% 29.77 in 10.0 mi WSW 8.1 mph - N/A   Clear
9:53 PM 63.0 °F - 30.9 °F 30% 29.77 in 10.0 mi WSW 8.1 mph - N/A   Clear
10:53 PM 55.0 °F - 32.0 °F 42% 29.78 in 10.0 mi SW 4.6 mph - N/A   Clear
11:53 PM 55.0 °F - 32.0 °F 42% 29.76 in 10.0 mi South 6.9 mph - N/A   Clear